Probability
0 0 0 0 0 0 0 0 0 0 0 0 0 0 0 0 0 0 0 0 0 0 0 0 0 0 0 0 0 0 0 0 0 0 1 2 3 3
0 0 0 0 0 0 0 0 0 0 0 0 0 0 0 0 0 0 0 0 0 0 0 0 0 0 0 0 0 0 0 0 0 0 0 1 2 2
0 0 0 0 0 0 0 0 0 0 0 0 0 0 0 0 0 0 0 0 0 0 0 0 0 0 0 0 0 0 0 0 0 0 0 0 1 1
0 0 0 0 0 0 0 0 0 0 0 0 0 0 0 0 0 0 0 0 0 0 0 0 0 0 0 0 0 0 0 0 0 0 0 0 0 0
0 0 0 0 0 0 0 0 0 0 0 0 0 0 0 0 0 0 0 0 0 0 0 0 0 0 0 0 0 0 0 0 0 0 0 0 0 0
0 0 0 0 0 0 0 0 0 0 0 0 0 0 0 0 0 0 0 0 0 0 0 0 0 0 0 0 0 0 0 0 0 0 0 0 0 0
0 0 0 0 0 0 0 0 0 0 0 0 0 0 0 0 0 0 0 0 0 0 0 0 0 0 0 0 0 0 0 0 0 0 0 0 0 0
0 0 0 0 0 0 0 0 0 0 0 0 0 0 0 0 0 0 0 0 0 0 0 0 0 0 0 0 0 0 0 0 0 0 0 0 0 0
0 0 0 0 0 0 0 0 0 0 0 0 0 0 0 0 0 0 0 0 0 0 0 0 0 0 0 0 0 0 0 0 0 0 0 0 0 0
0 0 0 0 0 0 0 0 0 0 0 0 0 0 0 0 0 0 0 0 0 0 0 0 0 0 0 0 0 0 0 0 0 0 0 0 0 0
0 0 0 0 0 0 0 0 0 0 0 0 0 0 0 0 0 0 0 0 0 0 0 0 0 0 0 0 0 0 0 0 0 0 0 0 0 0
0 0 0 0 0 0 0 0 0 0 0 0 0 0 0 0 0 0 0 0 0 0 0 0 0 1 1 1 1 0 0 0 0 0 0 0 0 0
0 0 0 0 0 0 0 0 0 0 0 0 0 0 0 0 0 0 0 0 0 0 0 0 1 2 2 2 2 1 0 0 0 0 0 0 0 0
0 0 0 0 0 0 0 0 0 0 0 0 0 0 0 0 0 0 0 0 0 0 0 0 1 2 3 3 2 1 0 0 0 0 0 0 0 0
0 0 0 0 0 0 0 0 0 0 0 0 0 0 0 0 0 0 0 0 0 0 0 0 1 2 2 1 1 1 0 0 0 0 0 0 0 0
0 0 0 0 0 0 0 0 0 0 0 0 0 0 0 0 0 0 0 0 0 0 0 0 0 1 1 0 0 0 0 0 0 0 0 0 0 0
0 0 0 0 0 0 0 0 0 0 0 0 0 0 0 0 0 0 0 0 0 0 0 0 0 0 0 0 0 0 0 0 0 0 0 0 0 0
0 0 0 0 0 0 0 0 0 0 0 0 0 0 0 0 0 0 0 0 0 0 0 0 0 0 0 0 0 0 0 0 0 0 0 0 0 0
0 0 0 0 0 0 0 0 0 0 0 0 0 0 0 0 0 0 0 0 0 0 0 0 0 0 0 0 0 0 0 0 0 0 0 0 0 0
0 0 0 0 0 0 0 0 0 0 0 0 0 0 0 0 0 0 0 0 0 0 0 0 0 0 0 0 0 0 0 0 0 0 0 0 0 0
0 0 0 0 0 0 0 0 0 0 0 0 0 0 0 0 0 0 0 0 0 0 0 0 0 0 0 0 0 0 0 0 0 0 0 0 0 0
0 0 0 0 0 0 0 0 0 0 0 0 0 0 0 0 0 0 0 0 0 0 0 0 0 0 0 0 0 0 0 0 0 0 0 0 0 0
0 0 0 0 0 0 0 0 0 0 0 0 0 0 0 0 0 0 0 0 0 0 0 0 0 0 0 0 0 0 0 0 0 0 0 0 0 0
Wind_Speed
5 5 5 4 4 4 5 5 5 6 5 5 3 3 3 4 4 5 5 5 6 6 7 7 7 7 7 7 7 8 8 8 8 7 8 8 8 9
4 5 5 4 4 4 4 5 6 6 6 4 4 5 5 5 5 6 5 6 6 6 6 7 7 7 7 8 8 8 8 8 8 8 8 9 9 9
5 6 6 6 5 4 4 5 5 6 7 6 5 5 7 6 5 5 5 5 5 6 7 7 7 8 8 8 8 8 8 8 9 9 9 9 10 9
7 7 7 6 7 5 5 6 6 6 7 8 6 6 8 7 7 6 5 5 5 6 7 8 8 8 8 9 9 8 9 9 9 9 9 9 10 10
8 8 8 8 7 6 6 6 6 6 6 7 7 6 6 6 6 6 6 5 5 5 7 8 8 9 9 9 9 9 9 9 10 9 9 10 10 11
8 8 8 8 8 8 7 7 7 7 7 7 6 6 6 6 6 5 5 5 5 5 6 7 8 9 9 9 9 9 9 10 11 10 10 10 10 10
8 8 9 9 10 9 7 7 7 7 6 7 7 6 6 5 6 5 6 5 5 5 5 5 5 5 6 8 9 9 10 10 11 10 10 10 10 10
9 9 9 9 10 11 12 12 11 9 8 8 7 8 9 7 6 6 5 5 5 4 5 6 5 6 6 6 8 10 10 11 10 10 10 10 10 10
9 9 8 8 10 9 10 12 12 13 13 11 10 10 10 8 8 8 7 7 7 5 5 7 6 7 6 6 9 10 11 11 11 11 11 11 11 11
10 10 10 10 9 9 9 10 10 11 11 11 11 11 10 9 9 9 8 8 8 6 6 7 6 7 6 6 8 11 11 12 12 12 12 12 11 11
10 10 10 10 11 11 10 10 10 10 10 13 14 13 13 13 11 7 7 6 6 5 5 6 5 6 6 7 7 10 11 11 11 11 11 11 11 11
8 9 11 12 12 12 10 10 11 10 8 8 10 12 12 12 12 10 8 7 6 5 4 5 5 4 5 5 5 5 6 8 10 11 11 11 11 8
8 8 8 11 13 13 12 10 11 10 9 9 9 9 8 7 8 8 8 8 8 7 4 5 5 5 6 6 6 6 6 6 6 7 9 10 11 10
9 8 8 11 12 13 11 11 12 10 8 8 8 7 7 7 6 7 7 8 8 9 7 7 6 7 7 7 7 5 6 5 5 6 6 8 10 11
9 11 12 12 12 11 13 12 10 8 7 8 8 7 6 6 6 5 6 6 7 7 7 8 8 7 7 8 7 6 6 6 6 6 6 6 6 6
9 10 13 14 12 11 10 8 8 7 7 8 8 7 6 5 6 5 5 5 5 6 6 8 9 9 8 9 7 7 6 6 5 5 6 6 6 6
7 7 7 7 7 7 7 7 7 6 7 7 7 7 6 6 6 5 5 5 6 6 6 4 5 6 8 7 7 7 6 6 6 5 6 7 7 7
8 7 7 7 8 7 7 7 6 6 6 7 7 7 6 6 6 5 5 6 6 6 6 5 3 3 4 6 7 8 6 6 6 6 6 7 8 7
8 8 8 8 8 7 7 7 7 6 6 6 7 6 6 6 6 6 6 6 6 6 6 5 4 5 6 7 6 6 6 6 5 6 6 7 8 8
7 7 7 7 7 7 6 6 6 6 6 6 6 6 6 6 6 6 6 7 6 6 5 5 5 6 7 7 6 6 7 7 6 7 7 6 7 8
6 6 7 7 7 6 6 6 6 6 6 6 6 7 6 7 7 6 6 8 7 6 7 6 6 6 5 4 5 6 6 7 8 7 6 6 7 7
6 6 6 7 6 6 5 6 6 6 6 6 6 6 6 6 7 7 6 6 6 6 7 5 4 4 5 6 7 7 6 5 6 9 10 10 7 7
5 5 5 6 6 5 5 6 7 6 6 6 6 6 6 6 6 6 6 6 6 6 6 5 5 4 5 6 6 6 7 6 5 5 5 7 10 12
Wind_Direction
262 266 258 255 255 256 257 254 256 260 264 265 262 255 275 274 280 271 272 286 288 284 282 285 286 287 288 289 287 287 284 286 280 283 275 267 266 263
258 261 263 258 253 253 252 252 253 254 261 264 273 284 282 283 279 270 269 279 271 273 276 277 279 279 280 282 283 284 280 280 278 276 279 272 265 266
255 256 261 261 256 253 251 250 250 249 257 267 269 275 272 275 275 266 265 262 263 266 270 273 272 273 276 277 277 277 278 277 274 271 274 277 268 265
254 253 256 256 253 252 251 250 251 250 254 263 267 270 270 268 269 264 264 261 262 262 264 269 269 269 270 271 271 273 273 275 274 272 272 276 274 266
255 252 253 252 252 251 250 250 251 252 252 258 265 268 272 267 267 264 262 260 260 258 258 260 262 264 266 267 267 269 270 271 269 267 270 273 276 268
256 256 254 252 251 251 250 250 250 250 250 254 259 262 266 266 261 259 264 262 261 260 262 263 262 260 260 263 265 264 263 264 262 260 263 266 268 267
256 255 254 256 258 255 255 252 250 249 248 249 254 259 260 258 254 257 260 268 267 258 260 257 256 257 257 257 258 257 258 260 260 261 262 263 263 264
256 256 255 252 254 254 258 261 257 251 250 251 254 253 258 258 261 259 258 260 265 249 260 263 259 259 260 257 261 259 259 262 260 262 262 263 263 264
255 256 255 254 254 249 251 254 253 252 251 254 256 253 260 258 257 256 251 251 258 260 257 261 256 258 259 260 262 259 260 259 259 260 261 260 259 261
254 255 255 256 253 252 253 254 252 249 247 246 253 257 260 262 255 252 254 261 267 254 244 255 258 262 264 261 258 258 259 257 256 257 259 258 258 260
254 254 255 254 255 257 257 256 256 256 253 252 255 258 260 258 255 248 245 247 260 259 246 255 263 273 269 261 255 253 254 254 254 256 258 258 259 262
255 253 252 254 258 255 254 255 256 259 261 258 255 255 256 253 242 236 236 239 251 259 241 246 260 271 271 256 253 254 253 255 259 260 260 259 260 259
257 254 252 252 258 258 257 257 262 269 264 261 261 257 254 248 237 232 234 235 240 249 240 244 258 258 261 273 270 261 260 264 265 262 256 254 253 253
258 258 259 259 260 260 258 260 266 270 262 259 258 254 251 249 245 243 243 245 248 251 244 242 253 250 257 266 268 262 261 260 263 265 263 259 255 253
258 262 266 264 263 258 256 259 259 256 256 255 255 256 256 255 253 251 250 253 259 254 247 248 251 252 249 255 265 266 270 268 262 262 262 261 260 256
260 262 263 260 258 259 258 252 247 250 253 257 258 260 263 254 247 245 247 247 257 263 254 248 250 247 251 255 255 258 258 261 258 264 268 267 263 258
264 259 257 254 250 249 250 252 250 247 250 254 258 258 255 254 249 245 247 246 250 256 264 263 261 256 254 251 252 253 255 260 260 260 261 263 261 259
262 254 254 254 254 253 252 252 252 250 251 253 254 256 252 250 253 250 246 243 245 249 253 255 258 265 264 261 245 250 253 258 262 259 256 260 264 262
252 250 252 253 253 253 252 251 253 255 254 254 254 253 254 251 248 247 244 245 249 250 253 250 243 245 254 265 263 238 250 259 261 259 255 256 263 266
251 254 255 253 253 252 253 255 257 258 254 254 254 253 251 253 250 245 243 244 248 252 254 250 242 239 246 260 273 273 252 254 259 261 263 266 267 270
261 261 261 258 254 252 253 253 255 256 256 255 255 254 250 249 252 251 248 249 249 249 248 250 251 256 263 265 266 268 267 256 255 256 261 265 269 268
263 266 266 263 258 251 250 250 251 252 253 252 254 254 251 248 250 251 249 246 247 248 253 258 257 254 249 249 256 265 272 276 272 267 260 253 254 253
268 269 270 270 263 254 250 250 251 253 252 252 252 251 251 250 248 247 249 247 246 249 252 254 254 256 255 254 256 261 265 272 274 276 273 268 262 262